Date,TemperatureHighF,TemperatureAvgF,TemperatureLowF,DewpointHighF,DewpointAvgF,DewpointLowF,HumidityHigh,HumidityAvg,HumidityLow,PressureMaxIn,PressureMinIn,WindSpeedMaxMPH,WindSpeedAvgMPH,GustSpeedMaxMPH,PrecipitationSumIn
2013-1-1,32,30,25,32,28,20,98,90,76,30.15,30.04,3,1,7,0.00
2013-1-2,30,23,15,21,17,11,95,79,54,30.25,30.14,4,1,8,0.00
2013-1-3,34,26,19,24,17,11,77,68,47,30.31,30.20,6,2,15,0.00
2013-1-4,36,31,28,26,23,21,82,73,57,30.34,30.29,9,3,17,0.00
2013-1-5,39,32,23,29,26,21,94,78,60,30.38,30.16,6,2,12,0.08
2013-1-6,38,33,27,33,28,22,87,81,76,30.34,30.03,9,4,18,0.04
2013-1-7,39,30,22,28,25,20,95,80,64,30.48,30.24,6,2,11,0.01
2013-1-8,49,37,25,35,30,23,93,76,58,30.32,30.22,7,2,11,0.00
2013-1-9,54,45,39,45,38,31,96,76,56,30.49,30.22,7,2,13,0.06
2013-1-10,44,40,37,39,35,30,95,83,73,30.52,30.10,7,3,11,0.08
2013-1-11,61,54,44,55,50,40,99,86,71,30.10,29.89,9,4,17,0.52
2013-1-12,64,60,53,63,57,49,98,93,84,30.04,29.82,8,3,20,0.02
2013-1-13,66,54,34,62,52,33,99,96,83,30.14,29.74,12,5,22,1.04
2013-1-14,34,26,22,33,22,20,95,87,81,30.44,30.14,6,2,14,0.24
2013-1-15,31,27,22,26,23,20,93,85,76,30.38,30.07,7,2,13,0.00
2013-1-16,35,32,30,29,27,26,90,84,70,30.07,29.97,5,2,10,0.00
2013-1-17,43,33,28,32,27,21,86,77,58,30.37,30.07,5,2,12,0.00
2013-1-18,38,29,19,26,20,16,89,69,48,30.52,30.24,7,3,16,0.00
2013-1-19,53,44,37,30,28,25,68,53,39,30.24,29.91,11,6,25,0.00
2013-1-20,47,34,26,36,18,11,73,53,40,30.23,29.92,10,4,24,0.00
2013-1-21,26,19,12,16,7,0,75,58,47,30.23,30.09,11,6,23,0.00
2013-1-22,17,12,5,1,0,-2,72,56,43,30.36,30.23,7,3,14,0.00
2013-1-23,21,16,10,10,5,0,68,59,52,30.35,30.10,5,2,11,0.00
2013-1-24,23,19,13,12,6,0,72,57,39,30.57,30.10,7,2,18,0.00
2013-1-25,25,22,18,21,15,7,89,77,57,30.41,30.04,5,2,9,0.00
2013-1-26,31,25,19,21,19,15,92,78,59,30.44,30.13,4,2,7,0.00
2013-1-27,36,27,20,33,22,16,95,81,65,30.44,30.18,6,3,10,0.23
2013-1-28,53,47,35,52,45,34,99,95,82,30.19,30.03,7,4,17,0.36
2013-1-29,63,58,53,59,54,51,96,88,81,30.06,29.60,11,6,24,0.01
2013-1-30,66,52,32,60,48,26,99,88,80,29.60,29.28,13,8,29,0.85
2013-1-31,32,26,16,26,19,13,93,75,62,30.02,29.56,9,5,24,0.07
2013-2-1,16,11,5,14,4,-1,90,71,63,30.40,30.02,10,4,25,0.00
2013-2-2,30,22,12,26,19,7,94,88,78,30.34,30.01,8,3,13,0.00
2013-2-3,27,21,16,24,17,11,90,84,74,30.14,29.95,7,3,14,0.00
2013-2-4,34,26,19,33,23,16,98,91,79,30.13,29.81,8,2,12,0.00
2013-2-5,36,32,27,35,30,25,99,90,82,30.00,29.85,5,1,11,0.01
2013-2-6,36,33,30,32,28,26,87,82,75,30.26,30.00,6,2,12,0.01
2013-2-7,59,43,30,39,33,26,88,69,43,30.22,29.81,6,3,11,0.00
2013-2-8,53,37,31,45,32,24,95,83,58,30.32,29.80,9,4,20,0.11
2013-2-9,39,31,21,25,20,18,88,67,44,30.42,30.23,5,2,11,0.01
2013-2-10,54,42,32,45,31,21,94,67,44,30.23,29.80,12,6,23,0.03
2013-2-11,51,46,38,49,36,29,96,69,51,30.04,29.78,11,6,24,0.03
2013-2-12,48,39,29,29,27,24,88,64,41,30.15,29.91,4,2,14,0.00
2013-2-13,37,32,29,31,28,26,95,88,63,29.91,29.78,3,1,7,0.03
2013-2-14,52,42,31,39,34,28,96,76,56,30.00,29.83,9,4,18,0.02
2013-2-15,39,33,25,32,28,22,90,81,64,30.16,30.00,8,2,17,0.01
2013-2-16,28,23,19,22,16,10,92,76,55,30.15,30.03,9,2,17,0.00
2013-2-17,30,22,12,15,10,6,92,64,39,30.25,30.12,4,1,9,0.00
2013-2-18,58,41,23,40,26,10,84,55,44,30.22,29.75,12,6,26,0.05
2013-2-19,45,32,23,41,26,15,97,80,65,30.11,29.67,12,7,23,0.20
2013-2-20,27,22,18,16,13,10,79,68,55,30.30,30.11,8,4,20,0.01
2013-2-21,29,24,18,24,18,12,90,77,68,30.36,30.06,10,3,18,0.00
2013-2-22,42,34,27,38,33,24,99,94,84,30.07,29.90,7,3,15,0.02
2013-2-23,41,35,30,34,28,25,97,76,54,30.01,29.91,5,2,12,0.01
2013-2-24,42,32,25,27,24,21,89,73,53,30.16,29.95,5,2,10,0.00
2013-2-25,44,35,27,28,24,21,81,66,51,30.19,29.90,9,4,17,0.00
2013-2-26,47,40,34,46,36,24,98,87,64,29.90,29.36,10,5,23,0.82
2013-2-27,41,36,32,40,34,29,96,92,83,29.72,29.52,8,4,18,0.15
2013-2-28,35,34,32,33,31,29,95,91,87,29.96,29.71,9,4,15,0.01
2013-3-1,35,33,29,33,31,24,98,93,80,30.04,29.94,3,1,8,0.05
2013-3-2,29,26,25,24,22,20,86,81,75,30.09,30.03,3,2,9,0.01
2013-3-3,30,27,23,24,21,18,89,77,67,30.11,30.06,5,2,12,0.00
2013-3-4,40,31,21,26,22,18,89,69,47,30.19,29.99,6,2,9,0.00
2013-3-5,38,35,29,36,31,24,98,87,60,30.01,29.59,7,4,13,0.31
2013-3-6,31,29,27,31,28,27,99,97,95,30.26,29.65,7,3,14,0.20
2013-3-7,37,32,29,32,29,26,97,89,76,30.38,30.24,5,2,8,0.04
2013-3-8,43,34,26,27,25,22,88,70,47,30.47,30.38,6,1,9,0.03
2013-3-9,55,43,31,35,31,26,85,65,45,30.39,30.06,7,3,12,0.01
2013-3-10,66,58,51,42,36,34,55,43,31,30.06,29.84,11,5,22,0.02
2013-3-11,58,48,37,51,44,32,99,89,57,29.87,29.63,10,5,23,1.14
2013-3-12,44,37,33,32,29,26,92,74,56,30.05,29.86,8,4,19,0.01
2013-3-13,33,29,26,31,26,22,95,88,73,30.32,30.03,9,4,21,0.00
2013-3-14,43,32,21,23,20,16,90,65,35,30.37,30.17,6,2,13,0.02
2013-3-15,52,41,30,40,34,24,93,77,60,30.17,29.79,4,2,11,0.01
2013-3-16,59,47,37,52,42,33,98,85,69,30.03,29.64,6,4,18,0.26
2013-3-17,36,34,33,33,30,28,92,85,81,30.15,30.01,7,3,15,0.03
2013-3-18,49,39,33,48,38,31,99,95,82,30.01,29.62,10,4,23,1.01
2013-3-19,43,36,28,35,23,14,91,61,32,30.11,29.84,13,6,28,0.01
2013-3-20,35,31,24,22,17,12,72,57,43,30.11,29.95,11,4,21,0.00
2013-3-21,31,26,20,15,12,9,78,55,45,30.04,29.99,7,2,15,0.00
2013-3-22,43,32,21,19,16,13,76,54,35,30.09,29.98,4,1,11,0.00
2013-3-23,51,40,31,26,22,18,64,49,33,30.06,29.88,4,1,10,0.00
2013-3-24,39,34,31,33,29,24,98,82,54,29.88,29.43,8,3,19,0.05
2013-3-25,33,31,28,32,30,27,98,97,95,29.94,29.44,5,2,12,0.01
2013-3-26,38,33,30,33,29,26,96,86,69,30.25,29.94,7,4,13,0.21
2013-3-27,42,35,28,30,27,25,90,72,54,30.32,30.25,6,3,12,0.08
2013-3-28,49,38,29,29,26,22,76,61,44,30.37,30.29,7,2,11,0.03
2013-3-29,55,44,31,33,30,26,86,59,35,30.33,30.20,5,1,10,0.00
2013-3-30,59,49,38,36,33,30,77,56,37,30.25,29.95,6,2,13,0.00
2013-3-31,56,50,45,48,42,-100,98,80,55,29.95,29.79,9,2,14,0.10
2013-4-1,50,42,36,42,28,19,81,59,38,30.12,29.80,8,3,16,0.02
2013-4-2,45,36,25,23,19,15,76,51,31,30.27,30.12,7,2,17,0.00
2013-4-3,47,37,25,19,16,14,67,44,28,30.42,30.26,6,2,12,0.00
2013-4-4,54,43,32,25,19,16,54,40,23,30.34,30.00,7,2,11,0.00
2013-4-5,61,49,38,38,28,23,56,45,31,30.14,29.98,5,2,12,0.00
2013-4-6,66,52,38,39,30,22,58,44,32,30.21,29.92,9,5,17,0.00
2013-4-7,72,63,57,55,46,37,93,54,41,30.01,29.86,8,5,20,0.10
2013-4-8,72,62,54,57,54,51,97,77,58,30.01,29.88,10,4,22,0.22
2013-4-9,79,69,58,61,57,52,83,66,47,30.05,29.92,12,4,23,0.01
2013-4-10,82,74,67,66,61,58,78,66,51,29.96,29.77,10,5,21,0.00
2013-4-11,71,62,58,63,59,57,99,90,68,29.81,29.54,8,3,14,1.14
2013-4-12,58,46,39,58,40,31,99,79,62,29.92,29.52,10,4,20,0.71
2013-4-13,58,46,36,37,35,32,88,66,41,30.04,29.92,9,3,28,0.01
2013-4-14,70,55,40,46,40,34,84,61,36,30.07,29.88,6,3,13,0.00
2013-4-15,67,62,56,55,51,45,79,69,52,30.01,29.90,9,4,14,0.00
2013-4-16,79,65,58,66,59,54,98,82,60,30.16,29.95,8,4,19,0.32
2013-4-17,77,64,54,66,60,54,100,88,64,30.19,29.96,10,3,14,0.38
2013-4-18,81,72,62,65,59,53,89,67,45,29.96,29.60,15,8,27,0.02
2013-4-19,74,48,37,61,41,31,96,77,52,29.98,29.44,12,5,29,0.61
2013-4-20,49,41,35,34,30,26,90,66,42,30.40,29.98,9,3,15,0.01
2013-4-21,55,44,33,33,28,24,73,55,36,30.54,30.38,6,2,11,0.00
2013-4-22,68,55,40,42,35,27,63,48,34,30.38,30.13,6,2,11,0.00
2013-4-23,69,61,51,54,47,40,70,62,53,30.14,29.87,8,4,16,0.00
2013-4-24,64,50,38,56,44,35,97,81,61,30.22,29.79,9,4,20,0.53
2013-4-25,58,46,35,39,35,31,94,69,41,30.38,30.22,9,2,20,0.01
2013-4-26,61,50,38,36,32,29,83,53,31,30.47,30.34,5,1,9,0.00
2013-4-27,62,55,48,52,41,33,83,60,42,30.35,30.07,9,3,14,0.00
2013-4-28,66,58,54,62,55,51,98,91,76,30.07,29.83,7,3,12,0.32
2013-4-29,64,58,54,57,54,52,98,89,70,30.01,29.90,3,1,8,0.02
2013-4-30,77,64,51,59,54,50,99,74,43,30.06,29.97,6,2,10,0.01
2013-5-1,82,71,57,60,56,53,88,61,42,30.17,30.06,4,2,11,0.00
2013-5-2,73,68,61,57,54,51,71,62,53,30.20,30.08,5,3,12,0.00
2013-5-3,74,67,61,59,54,41,81,63,38,30.08,29.93,8,4,17,0.00
2013-5-4,71,63,56,56,47,41,89,57,42,29.99,29.91,7,4,17,0.03
2013-5-5,56,54,50,53,50,46,96,88,70,29.99,29.91,4,2,9,1.07
2013-5-6,61,57,52,57,54,51,98,92,84,29.96,29.89,7,4,17,1.37
2013-5-7,73,61,55,60,56,54,98,87,57,29.98,29.91,4,1,10,0.33
2013-5-8,77,63,54,61,57,54,100,83,47,30.00,29.93,3,1,11,0.33
2013-5-9,79,68,57,61,57,52,97,72,40,30.03,29.93,4,1,10,0.21
2013-5-10,69,62,61,63,58,-100,99,92,75,29.95,29.81,7,2,17,1.50
2013-5-11,61,53,46,61,50,42,99,89,74,30.00,29.85,4,2,11,0.04
2013-5-12,55,47,39,42,34,-100,95,67,42,30.13,30.00,8,2,16,0.00
2013-5-13,61,51,39,39,34,31,86,55,33,30.19,30.11,7,1,15,0.00
2013-5-14,81,63,47,60,47,33,70,57,44,30.15,29.83,8,3,22,0.00
2013-5-15,87,77,68,63,59,56,75,56,40,29.91,29.81,6,3,19,0.00
2013-5-16,74,64,64,67,35,-100,95,78,56,29.98,29.84,4,1,12,0.06
2013-5-17,79,66,60,67,56,-100,100,89,62,30.06,29.98,5,1,14,0.13
2013-5-18,78,68,63,70,65,62,99,92,65,30.06,29.96,4,0,9,0.24
2013-5-19,82,71,64,70,66,63,100,86,61,30.01,29.89,3,1,6,0.02
2013-5-20,84,75,67,71,68,66,99,82,60,30.00,29.88,6,2,16,0.02
2013-5-21,83,75,67,68,65,62,88,73,54,29.96,29.79,7,3,16,0.00
2013-5-22,77,69,63,67,64,61,96,84,63,29.84,29.74,7,3,15,0.15
2013-5-23,67,62,52,64,58,48,98,88,69,30.07,29.79,6,2,14,0.47
2013-5-24,65,55,48,48,43,40,89,67,41,30.31,30.07,3,1,10,0.01
2013-5-25,52,50,49,42,41,40,73,70,66,30.30,30.29,0,0,0,0.00
2013-5-28,81,79,75,63,62,60,62,56,52,29.97,29.93,7,3,19,0.00
2013-5-29,85,77,69,67,62,60,77,62,44,30.08,29.97,7,3,14,0.00
2013-5-30,85,78,71,70,66,62,83,69,57,30.14,29.99,6,3,16,0.00
2013-5-31,81,73,67,70,67,64,98,83,68,30.05,29.93,7,3,17,0.47
2013-6-1,78,72,68,70,68,65,98,86,69,29.96,29.78,7,3,25,0.10
2013-6-2,77,70,65,67,61,-100,93,77,55,29.93,29.81,4,2,11,0.00
2013-6-3,70,62,54,60,53,49,86,74,59,30.05,29.91,4,1,10,0.00
2013-6-4,75,64,51,51,47,41,92,58,31,30.14,30.04,4,1,9,0.00
2013-6-5,81,69,57,64,56,48,82,65,50,30.08,29.85,4,1,6,0.00
2013-6-6,73,67,64,67,64,62,99,92,78,29.86,29.78,3,1,7,0.90
2013-6-7,76,66,58,62,59,57,97,80,56,29.88,29.79,3,1,8,0.01
2013-6-8,76,66,58,65,59,54,90,78,64,30.02,29.87,2,1,6,0.00
2013-6-9,80,70,63,69,64,61,95,82,57,30.06,29.90,8,2,15,0.11
2013-6-10,78,69,63,68,65,62,100,88,60,29.90,29.79,7,2,15,0.49
2013-6-11,84,73,63,68,65,62,97,77,51,29.97,29.86,5,2,12,0.03
2013-6-12,89,82,73,77,72,66,88,73,60,29.93,29.73,6,2,14,0.00
2013-6-13,82,75,66,74,66,56,98,75,53,29.91,29.61,7,2,18,0.54
2013-6-14,81,69,57,62,58,54,92,69,49,30.04,29.91,3,1,9,0.04
2013-6-15,82,72,61,64,61,56,88,68,53,30.11,29.95,6,2,10,0.00
2013-6-16,76,72,68,69,66,62,95,83,69,30.02,29.94,4,1,12,0.11
2013-6-17,87,74,66,72,68,64,98,82,52,29.98,29.86,3,0,10,0.01
2013-6-18,85,72,66,71,66,62,96,81,58,29.97,29.84,5,1,10,0.06
2013-6-19,80,70,58,62,57,54,92,65,45,30.11,29.97,5,1,10,0.03
2013-6-20,84,71,63,64,58,53,79,65,44,30.20,30.11,3,1,8,0.00
2013-6-22,88,82,70,74,70,67,91,69,56,30.17,30.06,4,2,16,0.00
2013-6-23,88,75,67,72,68,66,96,81,50,30.14,30.05,5,2,16,0.18
2013-6-24,84,76,67,72,69,66,96,81,63,30.14,30.01,5,2,13,0.01
2013-6-25,90,80,68,76,72,67,97,78,60,30.06,29.88,5,2,13,0.00
2013-6-26,84,73,67,75,69,66,99,89,71,29.93,29.76,5,2,17,0.90
2013-6-27,85,74,66,74,70,66,100,88,65,29.80,29.69,7,2,14,0.64
2013-6-28,84,75,66,71,66,61,93,77,48,29.70,29.58,7,2,22,0.04
2013-6-29,75,68,63,70,65,62,97,91,78,29.65,29.57,3,1,8,0.59
2013-6-30,79,70,64,67,65,63,99,86,59,29.82,29.64,4,1,12,0.02
2013-7-1,76,68,63,70,65,61,99,92,79,29.92,29.80,4,0,11,0.77
2013-7-2,80,70,65,70,66,65,100,88,65,30.01,29.90,4,1,8,0.48
2013-7-3,80,74,67,70,68,66,95,83,66,30.11,30.01,4,2,10,0.01
2013-7-4,73,68,67,69,68,66,100,98,88,30.15,30.07,6,1,14,1.06
2013-7-5,75,69,65,72,68,65,100,96,85,30.14,30.08,3,1,6,0.16
2013-7-6,75,70,67,72,69,66,100,97,87,30.12,30.04,3,1,13,2.26
2013-7-7,82,72,64,71,67,64,100,86,67,30.12,30.03,4,1,8,0.01
2013-7-8,86,75,68,74,68,-100,96,82,64,30.13,30.03,5,1,11,0.01
2013-7-9,89,81,75,77,73,71,87,78,64,30.08,29.97,5,2,12,0.00
2013-7-10,88,78,70,80,74,69,98,87,72,30.00,29.83,6,2,17,0.71
2013-7-11,81,72,66,70,66,58,100,81,61,30.01,29.92,3,0,9,0.62
2013-7-12,80,70,59,63,59,57,93,71,48,30.09,30.01,3,0,10,0.00
2013-7-13,82,75,66,68,65,60,84,71,59,30.13,30.03,5,2,11,0.00
2013-7-14,89,79,70,75,71,66,98,78,60,30.21,30.11,6,2,14,0.18
2013-7-15,92,80,72,74,72,70,98,77,51,30.30,30.21,4,1,6,0.18
2013-7-16,91,82,73,75,73,70,95,75,53,30.33,30.25,2,0,5,0.09
2013-7-17,92,83,74,77,75,73,97,77,57,30.32,30.18,2,0,6,0.09
2013-7-18,93,84,74,76,73,70,91,70,49,30.20,30.02,3,0,8,0.00
2013-7-19,88,82,77,79,75,70,92,81,67,30.05,29.89,7,1,14,0.09
2013-7-20,88,78,69,76,71,-100,96,82,61,29.92,29.84,6,2,13,0.21
2013-7-21,86,76,69,74,70,67,98,83,65,29.96,29.86,4,0,8,0.18
2013-7-22,79,72,69,74,70,68,99,93,83,29.91,29.76,3,1,8,0.36
2013-7-23,87,76,69,78,72,67,99,89,68,29.83,29.73,5,1,11,0.40
2013-7-24,78,67,57,67,61,56,97,81,60,29.98,29.82,2,1,7,0.28
2013-7-25,78,68,55,59,56,53,94,70,49,30.08,29.98,3,1,8,0.00
2013-7-26,79,68,58,63,59,56,93,75,55,30.09,30.00,4,1,9,0.00
2013-7-30,77,74,70,65,63,61,78,68,57,30.18,30.11,2,1,4,0.00
2013-7-31,75,69,64,69,66,63,99,88,78,30.11,29.94,4,1,8,0.02
2013-8-1,82,73,66,68,64,57,99,77,50,30.00,29.91,5,1,13,0.03
2013-8-2,83,72,62,67,62,58,89,71,52,30.01,29.95,5,1,14,0.01
2013-8-3,81,73,67,72,66,62,97,81,60,30.02,29.95,3,1,9,0.05
2013-8-4,79,69,59,63,57,54,86,68,45,30.12,30.02,3,1,8,0.02
2013-8-5,81,69,58,61,58,55,91,69,47,30.11,29.96,3,1,7,0.00
2013-8-6,79,73,67,70,64,58,88,74,66,29.98,29.91,5,2,11,0.00
2013-8-7,83,76,69,74,71,68,98,87,72,29.95,29.86,3,1,8,0.00
2013-8-8,84,76,70,76,72,69,99,90,72,29.96,29.89,4,1,11,0.82
2013-8-9,82,74,68,75,71,67,100,92,71,30.02,29.90,3,0,11,1.06
2013-8-10,86,76,69,72,70,68,99,82,58,30.11,30.02,4,0,7,0.00
2013-8-11,87,77,70,73,69,64,97,77,58,30.09,30.02,4,1,14,0.00
2013-8-12,83,74,66,74,68,65,97,84,60,30.08,29.87,4,1,7,0.17
2013-8-13,79,70,61,73,61,-100,98,78,59,30.04,29.85,2,1,8,0.09
2013-8-14,60,57,55,52,51,51,87,82,74,30.05,30.04,0,0,1,0.00
2013-10-2,76,68,62,70,65,61,97,90,80,30.12,30.03,2,0,4,0.00
2013-10-3,78,71,68,71,68,66,100,92,71,30.08,30.00,3,1,7,0.31
2013-10-4,82,74,64,71,67,63,98,82,63,30.08,30.01,4,1,9,0.11
2013-10-5,79,71,67,72,69,66,99,92,78,30.05,29.94,3,2,8,0.47
2013-10-6,71,63,53,68,62,51,100,98,90,29.94,29.71,6,2,12,2.63
2013-10-7,60,52,45,52,46,43,98,82,60,30.15,29.83,6,2,12,0.01
2013-10-8,66,55,44,50,46,43,99,74,45,30.28,30.15,4,1,8,0.00
2013-10-9,72,59,47,55,48,44,91,69,47,30.24,30.15,3,1,8,0.00
2013-10-10,72,59,46,50,46,44,95,66,40,30.19,30.07,3,0,5,0.00
2013-10-18,63,52,44,51,46,43,97,79,53,30.05,29.94,5,1,10,0.01
2013-10-19,52,46,41,47,43,39,97,89,79,30.00,29.84,4,1,13,0.17
2013-10-20,60,48,37,45,39,-100,95,74,55,30.05,30.00,6,2,16,0.02
2013-10-21,64,52,41,49,43,39,92,72,48,30.03,29.90,6,2,16,0.00
2013-10-22,51,44,34,48,34,29,93,68,46,30.05,29.86,4,1,12,0.08
2013-10-23,44,41,35,40,36,31,98,84,62,30.04,29.73,5,1,14,0.11
2013-10-24,43,38,33,36,34,31,98,85,65,30.27,30.04,4,2,13,0.08
2013-10-25,47,40,30,34,30,27,97,68,50,30.44,30.27,3,1,11,0.01
2013-10-26,52,42,33,40,32,27,80,69,59,30.29,29.96,7,2,16,0.00
2013-10-27,56,46,38,41,34,-100,89,67,49,30.12,30.06,3,0,6,0.00
2013-10-28,61,47,34,41,34,-100,96,68,39,30.29,30.09,3,0,7,0.00
2013-10-29,55,48,38,49,42,35,92,78,70,30.36,30.22,2,1,4,0.01
2013-10-30,62,56,51,62,56,49,100,98,86,30.23,30.03,4,1,6,0.16
2013-10-31,64,62,58,64,59,57,100,91,80,30.02,29.37,8,4,18,1.34
2013-11-1,62,56,48,55,48,44,99,77,54,29.75,29.44,7,3,19,0.11
2013-11-2,54,48,43,44,40,36,88,74,58,30.09,29.75,6,2,11,0.00
2013-11-3,54,44,39,41,36,-100,96,77,56,30.33,30.09,4,1,6,0.00
2013-11-11,57,43,33,45,34,30,95,74,35,30.32,30.08,5,2,13,0.08
2013-11-12,35,29,24,34,24,20,97,82,59,30.60,30.25,5,2,12,0.04
2013-11-13,39,30,21,23,21,17,94,72,43,30.64,30.40,5,2,11,0.01
2013-11-14,52,41,30,25,22,20,69,50,30,30.40,30.16,9,4,14,0.00
2013-11-15,52,46,38,43,30,22,90,56,42,30.18,30.10,6,3,11,0.00
2013-11-16,60,51,46,56,47,-100,97,90,87,30.15,29.92,8,4,17,0.00
2013-11-17,61,59,58,58,57,55,99,94,86,29.93,29.78,14,7,24,0.63
2013-12-19,53,46,37,44,33,22,73,60,53,30.11,29.97,7,4,16,0.01
2013-12-20,59,54,51,57,48,39,93,79,58,29.97,29.83,9,5,19,0.01
2013-12-21,66,59,57,63,56,-100,100,95,90,29.84,29.48,14,5,29,1.67
2013-12-22,61,51,38,60,48,36,99,91,78,30.04,29.57,11,4,20,0.41
2013-12-23,37,30,23,35,25,18,96,83,72,30.39,30.05,8,4,14,0.02
2013-12-24,24,18,12,20,12,8,89,78,65,30.55,30.37,8,2,14,0.00
2013-12-25,33,25,17,24,17,12,83,70,54,30.50,30.22,7,3,13,0.00
2013-12-31,32,27,21,22,18,15,83,69,57,30.36,30.17,6,3,12,0.00
2014-1-1,45,34,24,31,26,21,90,72,53,30.29,30.02,6,2,9,0.00
2014-1-2,37,24,10,31,21,6,97,90,66,30.26,29.84,1,0,3,0.00